This demonstration page uses our WeatherBlox Daily Observations layout. Learn more.

Left ArrowRight Arrow

Hourly Observations for December 8, 2020

Temp ( °F °C ) Dew Point ( °F °C ) Humidity (%) Winds ( mph kmh ) Pressure ( in mb ) Visibility ( mi km ) Precip ( " mm )
12:15 am 00:15 Cloudy 30 -1 28 -2 93 93 Calm 30.16 1021 10 16.0934 N/A
12:35 am 00:35 Cloudy 30 -1 30 -1 100 100 Calm 30.16 1021 10 16.0934 N/A
12:55 am 00:55 Cloudy 30 -1 30 -1 100 100 Calm 30.16 1021 10 16.0934 N/A
1:15 am 01:15 Cloudy 30 -1 30 -1 100 100 Calm 30.15 1021 10 16.0934 N/A
1:35 am 01:35 Cloudy 30 -1 30 -1 100 100 Calm 30.14 1021 10 16.0934 N/A
1:55 am 01:55 Cloudy 30 -1 30 -1 100 100 Calm 30.14 1021 10 16.0934 N/A
2:15 am 02:15 Cloudy 30 -1 30 -1 100 100 Calm 30.14 1021 10 16.0934 N/A
2:35 am 02:35 Cloudy 30 -1 30 -1 100 100 Calm 30.14 1021 10 16.0934 N/A
2:55 am 02:55 Cloudy 30 -1 30 -1 100 100 Calm 30.14 1021 10 16.0934 N/A
3:15 am 03:15 Cloudy 30 -1 30 -1 100 100 Calm 30.14 1021 10 16.0934 N/A
3:35 am 03:35 Cloudy 30 -1 30 -1 100 100 Calm 30.14 1021 10 16.0934 N/A
3:55 am 03:55 Cloudy 30 -1 30 -1 100 100 Calm 30.15 1021 10 16.0934 N/A
4:15 am 04:15 Cloudy 30 -1 30 -1 100 100 Calm 30.16 1021 10 16.0934 N/A
4:35 am 04:35 Cloudy 30 -1 30 -1 100 100 Calm 30.15 1021 10 16.0934 N/A
4:55 am 04:55 Cloudy 30 -1 30 -1 100 100 Calm 30.15 1021 10 16.0934 N/A
5:15 am 05:15 Cloudy 30 -1 30 -1 100 100 Calm 30.15 1021 10 16.0934 N/A
5:35 am 05:35 Cloudy 30 -1 30 -1 100 100 Calm 30.15 1021 10 16.0934 N/A
5:55 am 05:55 Cloudy 30 -1 30 -1 100 100 Calm 30.15 1021 10 16.0934 N/A
6:15 am 06:15 Cloudy 30 -1 30 -1 100 100 Calm 30.16 1021 10 16.0934 N/A
6:35 am 06:35 Cloudy 30 -1 30 -1 100 100 Calm 30.16 1021 10 16.0934 N/A
6:55 am 06:55 Cloudy 30 -1 30 -1 100 100 Calm 30.17 1022 10 16.0934 N/A
7:15 am 07:15 Cloudy 30 -1 30 -1 100 100 Calm 30.17 1022 10 16.0934 N/A
7:35 am 07:35 Cloudy 30 -1 30 -1 100 100 Calm 30.18 1022 10 16.0934 N/A
7:55 am 07:55 Cloudy 30 -1 30 -1 100 100 Calm 30.18 1022 10 16.0934 N/A
8:15 am 08:15 Cloudy 30 -1 30 -1 100 100 Calm 30.19 1022 10 16.0934 N/A
8:35 am 08:35 Cloudy 30 -1 30 -1 100 100 Calm 30.19 1022 10 16.0934 N/A
8:55 am 08:55 Cloudy 30 -1 30 -1 100 100 Calm 30.2 1023 10 16.0934 N/A
9:15 am 09:15 Cloudy 32 0 30 -1 93 93 Calm 30.2 1023 10 16.0934 N/A
9:35 am 09:35 Cloudy 32 0 30 -1 93 93 Calm 30.2 1023 10 16.0934 N/A
9:55 am 09:55 Cloudy 32 0 30 -1 93 93 SE 5 7 30.19 1022 10 16.0934 N/A
10:15 am 10:15 Cloudy 32 0 32 0 100 100 Calm 30.2 1023 10 16.0934 N/A
10:35 am 10:35 Cloudy 32 0 30 -1 93 93 Calm 30.21 1023 10 16.0934 N/A
10:55 am 10:55 Cloudy 34 1 28 -2 81 81 Calm 30.2 1023 10 16.0934 N/A
11:15 am 11:15 Cloudy 34 1 30 -1 87 87 Calm 30.21 1023 10 16.0934 N/A
11:35 am 11:35 Cloudy 34 1 28 -2 81 81 Calm 30.21 1023 10 16.0934 N/A
11:55 am 11:55 Cloudy 34 1 30 -1 87 87 Calm 30.2 1023 10 16.0934 N/A
12:15 pm 12:15 Cloudy 34 1 30 -1 87 87 S 7 11 30.16 1021 10 16.0934 N/A
12:35 pm 12:35 Cloudy 36 2 30 -1 81 81 S 8 13 30.14 1021 10 16.0934 N/A
12:55 pm 12:55 Cloudy 36 2 30 -1 81 81 S 8 13 30.13 1020 10 16.0934 N/A
1:15 pm 13:15 Cloudy 36 2 30 -1 81 81 S 9 15 30.12 1020 10 16.0934 N/A
1:35 pm 13:35 Cloudy 36 2 30 -1 81 81 S 6 9 30.12 1020 10 16.0934 N/A
1:55 pm 13:55 Cloudy 37 3 30 -1 75 75 SSW 8 13 30.11 1020 10 16.0934 N/A
2:15 pm 14:15 Cloudy 36 2 30 -1 81 81 SSW 7 11 30.12 1020 10 16.0934 N/A
2:35 pm 14:35 Cloudy 37 3 30 -1 75 75 SSW 9 15 30.1 1019 10 16.0934 N/A
2:55 pm 14:55 Cloudy 36 2 30 -1 81 81 SSW 8 13 30.11 1020 10 16.0934 N/A
3:15 pm 15:15 Cloudy 37 3 30 -1 75 75 SW 12 19 30.09 1019 10 16.0934 N/A
3:35 pm 15:35 Cloudy 37 3 30 -1 75 75 SW 10 17 30.1 1019 10 16.0934 N/A
3:55 pm 15:55 Cloudy 37 3 30 -1 75 75 WSW 10 17 30.11 1020 10 16.0934 N/A
4:15 pm 16:15 Cloudy 37 3 30 -1 75 75 SW 9 15 30.1 1019 10 16.0934 N/A
4:35 pm 16:35 Cloudy 37 3 30 -1 75 75 SW 12 19 30.1 1019 10 16.0934 N/A
4:55 pm 16:55 Cloudy 36 2 30 -1 81 81 SSW 8 13 30.09 1019 10 16.0934 N/A
5:15 pm 17:15 Cloudy 36 2 30 -1 81 81 SSW 8 13 30.09 1019 10 16.0934 N/A
5:35 pm 17:35 Cloudy 36 2 30 -1 81 81 SSW 8 13 30.08 1019 10 16.0934 N/A
5:55 pm 17:55 Cloudy 36 2 32 0 87 87 SSW 7 11 30.08 1019 10 16.0934 N/A
6:15 pm 18:15 Mostly Cloudy 36 2 32 0 87 87 SSW 8 13 30.06 1018 10 16.0934 N/A
6:35 pm 18:35 Partly Cloudy 36 2 32 0 87 87 SSW 6 9 30.06 1018 10 16.0934 N/A
6:55 pm 18:55 Clear 36 2 32 0 87 87 SSW 9 15 30.04 1017 10 16.0934 N/A
7:15 pm 19:15 Clear 36 2 32 0 87 87 SW 10 17 30.05 1018 10 16.0934 N/A
7:35 pm 19:35 Clear 34 1 32 0 93 93 SW 10 17 30.05 1018 10 16.0934 N/A
7:55 pm 19:55 Clear 34 1 32 0 93 93 SW 10 17 30.05 1018 10 16.0934 N/A
8:15 pm 20:15 Clear 34 1 32 0 93 93 SSW 8 13 30.05 1018 10 16.0934 N/A
8:35 pm 20:35 Clear 32 0 32 0 100 100 SW 6 9 30.07 1018 10 16.0934 N/A
8:55 pm 20:55 Clear 32 0 32 0 100 100 SW 7 11 30.08 1018 10 16.0934 N/A
9:15 pm 21:15 Partly Cloudy 34 1 32 0 93 93 WSW 10 17 30.08 1019 10 16.0934 N/A
9:35 pm 21:35 Cloudy 34 1 32 0 93 93 SW 10 17 30.07 1018 10 16.0934 N/A
9:55 pm 21:55 Cloudy 34 1 32 0 93 93 WSW 14 22 30.07 1018 10 16.0934 N/A
10:15 pm 22:15 Cloudy 34 1 34 1 100 100 WSW 9 15 30.06 1018 10 16.0934 N/A
10:35 pm 22:35 Cloudy 34 1 32 0 93 93 SW 9 15 30.05 1018 10 16.0934 N/A
10:55 pm 22:55 Partly Cloudy 34 1 32 0 93 93 SW 10 17 30.05 1018 10 16.0934 N/A
11:15 pm 23:15 Clear 34 1 34 1 100 100 S 9 15 30.02 1017 10 16.0934 N/A
11:35 pm 23:35 Clear 34 1 34 1 100 100 S 9 15 30.02 1017 10 16.0934 N/A
11:55 pm 23:55 Clear 32 0 32 0 100 100 SSW 8 13 30.03 1017 10 16.0934 N/A

Powered by AerisWeather